Burnet, TX

3:55 AM CDT on July 27, 2017 (GMT -0500)
Burnet Municipal-Craddock

Weather History for KBMQ - November, 2011

Change the Weather History Date:

Monday, November 21, 2011

  Actual Average Record
Temperature  
Mean Temperature 65 °F -  
Max Temperature 75 °F 64 °F 79 °F (2012)
Min Temperature 55 °F 44 °F 30 °F (2000)
Growing Degree Days 15 (Base 50)    
Moisture  
Dew Point 59 °F    
Average Humidity 88    
Maximum Humidity 94    
Minimum Humidity 78    
Precipitation  
Precipitation 0.08 in - - ()
Sea Level Pressure  
Sea Level Pressure 30.01 in    
Wind  
Wind Speed 7 mph (ENE)    
Max Wind Speed 14 mph    
Max Gust Speed 22 mph    
Visibility 6 miles    
Events Rain    
Averages and records for this station are not official NWS values.
T = Trace of Precipitation, MM = Missing Value Source: NWS Daily Summary

Daily Weather History Graph

Daily Weather History Graph

Search for Another Location

Airport or City:

Trip Planner

Search our weather history database for the weather conditions in past years. The results will help you decide how hot, cold, wet, or windy it might be!

Date:

Astronomy

Nov. 21, 2011 Rise Set
Actual Time 7:04 AM CST 5:33 PM CST
Civil Twilight 6:38 AM CST 5:58 PM CST
Nautical Twilight 6:09 AM CST 6:28 PM CST
Astronomical Twilight 5:40 AM CST 6:57 PM CST
Moon 2:58 AM CST (11/21) 2:45 PM CST (11/21)
Length of Visible Light 11h 20m
Length of Day
10h 28m
Waning Crescent, 17% of the Moon is Illuminated
Nov 21
Waning Crescent
Nov 25
New
Dec 2
First Quarter
Dec 10
Full
Dec 17
Last Quarter

Hourly Weather History & Observations

Time (CST) Temp. Dew Point Humidity Pressure Visibility Wind Dir Wind Speed Gust Speed Precip Events Conditions
12:41 AM 60.8 °F 55.4 °F 82% 30.11 in 7.0 mi NNE 8.1 mph - 0.00 in Rain Light Rain
12:49 AM 60.8 °F 55.4 °F 82% 30.11 in 6.0 mi North 4.6 mph - 0.00 in Rain Light Rain
12:53 AM 59.0 °F 55.9 °F 90% 30.07 in 6.0 mi NNE 6.9 mph - 0.00 in Rain Light Rain
1:53 AM 59.0 °F 55.0 °F 87% 30.07 in 8.0 mi NNE 5.8 mph - 0.00 in   Overcast
2:53 AM 57.9 °F 54.0 °F 87% 30.06 in 9.0 mi NNE 6.9 mph - N/A   Overcast
3:02 AM 57.2 °F 53.6 °F 88% 30.10 in 9.0 mi North 3.5 mph - N/A   Overcast
3:13 AM 57.2 °F 53.6 °F 88% 30.10 in 9.0 mi NNE 6.9 mph - N/A   Overcast
3:21 AM 57.2 °F 53.6 °F 88% 30.10 in 9.0 mi NNE 6.9 mph - N/A   Overcast
3:53 AM 57.0 °F 52.0 °F 83% 30.06 in 8.0 mi NNE 5.8 mph - N/A   Mostly Cloudy
4:06 AM 55.4 °F 51.8 °F 88% 30.09 in 8.0 mi NNE 6.9 mph - N/A   Mostly Cloudy
4:15 AM 55.4 °F 51.8 °F 88% 30.09 in 8.0 mi NNE 6.9 mph - N/A   Mostly Cloudy
4:32 AM 55.4 °F 51.8 °F 88% 30.09 in 9.0 mi NNE 6.9 mph - N/A   Overcast
4:53 AM 57.0 °F 51.1 °F 81% 30.05 in 9.0 mi NNE 5.8 mph - N/A   Overcast
5:09 AM 55.4 °F 51.8 °F 88% 30.09 in 9.0 mi NNE 6.9 mph - N/A   Overcast
5:49 AM 57.2 °F 51.8 °F 82% 30.09 in 8.0 mi NE 6.9 mph - N/A   Overcast
6:53 AM 57.0 °F 52.0 °F 83% 30.06 in 7.0 mi NE 5.8 mph - N/A   Overcast
7:53 AM 57.9 °F 53.1 °F 84% 30.08 in 5.0 mi NE 6.9 mph - N/A   Haze
8:53 AM 57.9 °F 53.1 °F 84% 30.09 in 4.0 mi NE 6.9 mph - N/A   Haze
9:32 AM 57.2 °F 53.6 °F 88% 30.12 in 3.0 mi NE 6.9 mph - 0.00 in   Overcast
9:44 AM 57.2 °F 53.6 °F 88% 30.11 in 2.5 mi NNE 5.8 mph - 0.00 in   Overcast
9:53 AM 57.9 °F 54.0 °F 87% 30.09 in 3.0 mi Variable 6.9 mph - 0.00 in   Overcast
10:09 AM 57.2 °F 53.6 °F 88% 30.10 in 2.5 mi NE 8.1 mph - N/A   Overcast
10:53 AM 59.0 °F 55.0 °F 87% 30.06 in 2.5 mi NE 5.8 mph - N/A   Overcast
11:03 AM 57.2 °F 55.4 °F 94% 30.08 in 1.2 mi NE 5.8 mph - 0.00 in Rain Light Rain
11:21 AM 57.2 °F 55.4 °F 94% 30.08 in 0.8 mi NNE 8.1 mph - 0.01 in Rain Rain
11:46 AM 57.2 °F 55.4 °F 94% 30.07 in 1.5 mi NNE 6.9 mph - 0.05 in Rain Rain
11:53 AM 57.0 °F 55.0 °F 93% 30.04 in 1.5 mi NE 6.9 mph - 0.06 in Rain Light Rain
12:04 PM 57.2 °F 55.4 °F 94% 30.05 in 3.0 mi NNE 8.1 mph - 0.00 in Rain Light Rain
12:25 PM 59.0 °F 57.2 °F 94% 30.03 in 1.5 mi NE 5.8 mph - 0.00 in   Overcast
12:32 PM 60.8 °F 57.2 °F 88% 30.03 in 1.2 mi NE 4.6 mph - 0.00 in   Overcast
12:43 PM 60.8 °F 59.0 °F 94% 30.02 in 1.5 mi NNE 5.8 mph - 0.00 in   Overcast
12:53 PM 61.0 °F 59.0 °F 93% 29.98 in 1.8 mi NNE 4.6 mph - 0.00 in   Overcast
1:06 PM 60.8 °F 57.2 °F 88% 30.00 in 2.0 mi East 3.5 mph - N/A   Overcast
1:21 PM 62.6 °F 60.8 °F 94% 29.98 in 1.2 mi ESE 8.1 mph - 0.01 in Rain Rain
1:31 PM 62.6 °F 60.8 °F 94% 29.97 in 1.5 mi ESE 6.9 mph - 0.01 in Rain Light Rain
1:46 PM 62.6 °F 60.8 °F 94% 29.96 in 2.0 mi East 6.9 mph - 0.01 in Rain Light Rain
1:53 PM 62.1 °F 60.1 °F 93% 29.92 in 2.0 mi ESE 6.9 mph - 0.01 in Rain Light Rain
2:12 PM 64.4 °F 62.6 °F 94% 29.93 in 3.0 mi SE 5.8 mph - 0.00 in   Overcast
2:29 PM 64.4 °F 62.6 °F 94% 29.92 in 3.0 mi ESE 6.9 mph - 0.00 in   Overcast
2:43 PM 66.2 °F 62.6 °F 88% 29.91 in 3.0 mi ESE 6.9 mph - 0.00 in   Overcast
2:53 PM 68.0 °F 64.9 °F 90% 29.88 in 4.0 mi SE 8.1 mph - 0.00 in   Overcast
3:53 PM 73.9 °F 69.1 °F 85% 29.84 in 9.0 mi SE 13.8 mph 21.9 mph 0.00 in   Overcast
4:03 PM 73.4 °F 69.8 °F 88% 29.87 in 10.0 mi SSE 11.5 mph 19.6 mph N/A   Overcast
4:53 PM 75.0 °F 68.0 °F 79% 29.85 in 10.0 mi SSE 8.1 mph - N/A   Overcast
5:53 PM 73.9 °F 68.0 °F 82% 29.87 in 10.0 mi South 6.9 mph - 0.00 in Rain Light Rain
6:13 PM 73.4 °F 68.0 °F 83% 29.91 in 10.0 mi SSE 5.8 mph - 0.01 in Rain Light Rain
6:53 PM 73.9 °F 68.0 °F 82% 29.88 in 10.0 mi SSE 9.2 mph - 0.01 in   Overcast
7:53 PM 73.0 °F 66.9 °F 81% 29.91 in 10.0 mi South 3.5 mph - N/A   Scattered Clouds
8:20 PM 73.4 °F 68.0 °F 83% 29.94 in 10.0 mi SSE 8.1 mph - N/A   Mostly Cloudy
8:31 PM 73.4 °F 66.2 °F 78% 29.94 in 10.0 mi South 6.9 mph - N/A   Scattered Clouds
8:53 PM 72.0 °F 68.0 °F 87% 29.91 in 10.0 mi SSE 5.8 mph - N/A   Scattered Clouds
9:07 PM 71.6 °F 68.0 °F 88% 29.95 in 10.0 mi South 6.9 mph - N/A   Mostly Cloudy
9:53 PM 72.0 °F 68.0 °F 87% 29.91 in 10.0 mi South 8.1 mph - N/A   Mostly Cloudy
10:32 PM 71.6 °F 68.0 °F 88% 29.95 in 10.0 mi South 9.2 mph - N/A   Overcast
10:53 PM 72.0 °F 68.0 °F 87% 29.91 in 10.0 mi South 9.2 mph - N/A   Overcast
11:53 PM 72.0 °F 68.0 °F 87% 29.89 in 10.0 mi South 8.1 mph 16.1 mph N/A   Overcast